www.pogodaiklimat.ru

Погода и климат >> Архив погоды >> Индия >> Purnea


ПОГОДА в Purnea

  • Прогноз погоды в Purnea
  • Монитор погоды в Purnea
  • Климат города

АРХИВ ПОГОДЫ в Purnea

Время (UTC), дата Ветер
(напр.,м/с)
 
Видим.   Явления Облачность Т
(С)
Тd
(С)
f
(%)
Тe
(С)
Тes
(С)
Комфортность P
(гПа)
Po
(гПа)
Тmin
(С)
Tmax
(С)
R
(мм)
R24
(мм)
S
(см)
18 16.06 СВ 3 2000 м гроза, ливневой дождь 10/5 540 м
[Cb cap As op]
+26.0 +26.0 100 +39 +39 очень
душно
999.7 1000.0 5
21 16.06 СВ 1 2000 м мгла 8/5 600 м
[Sc As op]
+25.2 +24.8 98 +36 +36 очень
душно
998.9 999.0 6
00 17.06 СВ 1 2000 м мгла 9/5 600 м
[Sc Ac trans]
+24.8 +23.6 93 +34 +34 очень
душно
999.3 999.0 6
03 17.06 СВ 2 4000 м 8/5 600 м
[Sc Ac trans]
+25.6 +24.5 94 +36 +40 очень
душно
1000.4 1000.0 +23.9 6
06 17.06 ЮВ 2 4000 м 8/5 600 м
[Sc Ac trans]
+31.0 +25.1 71 +45 +52 опасность
перегрева
999.7 1000.0
09 17.06 В 1 4000 м 6/4 600 м
[Sc Ac trans]
+32.8 +25.2 64 +47 +54 опасность
перегрева
998.3 998.0
12 17.06 СВ 2 4000 м 5/0
[Ac trans Ci fib]
+31.4 +25.8 72 +46 +47 опасность
перегрева
996.7 997.0 +33.7
15 17.06 ЮВ 2 2000 м мгла 3/0
[Ac trans]
+29.2 +25.5 80 +43 +43 опасность
перегрева
998.3 998.0
18 17.06 В 1 2000 м мгла 5/3 600 м
[Sc Ac trans]
+28.2 +25.4 85 +41 +41 опасность
перегрева
999.8 1000.0
21 17.06 ЮВ 2 2000 м мгла 6/4 600 м
[Sc Ac trans]
+27.4 +25.4 89 +40 +40 очень
душно
998.6 999.0
00 18.06 В 2 2000 м мгла 9/5 600 м
[Sc Ac trans]
+26.2 +25.3 95 +38 +38 очень
душно
998.7 999.0
03 18.06 ЮВ 2 4000 м 5/0
[Ac trans Ci fib]
+29.4 +23.0 68 +39 +49 очень
душно
999.8 1000.0 +25.3
06 18.06 СВ 2 4000 м 3/3 600 м
[Sc]
+32.2 +25.5 68 +47 +64 опасность
перегрева
999.6 1000.0
09 18.06 СВ 1 4000 м 4/4 600 м
[Sc]
+34.0 +26.5 65 +51 +60 опасность
перегрева
997.7 998.0
12 18.06 СВ 1 4000 м ясно +33.2 +26.9 70 +51 +52 опасность
перегрева
996.4 996.0 +35.2
00 19.06 штиль 0 2000 м мгла {дождь} 10/3 600 м
[Sc Ac trans]
+25.6 +24.1 91 +35 +35 очень
душно
998.4 998.0 4
03 19.06 штиль 0 4000 м 3/3 600 м
[Sc]
+29.6 +24.5 74 +42 +53 опасность
перегрева
1000.0 1000.0 +25.5 4
06 19.06 В 1 4000 м 8/5 600 м
[Sc Ac trans]
+33.2 +25.6 64 +48 +56 опасность
перегрева
999.7 1000.0
09 19.06 штиль 0 4000 м 5/3 600 м
[Sc Ac trans]
+34.0 +26.2 64 +50 +61 опасность
перегрева
996.6 997.0
12 19.06 штиль 0 4000 м 6/4 600 м
[Sc Ac trans]
+35.0 +27.9 67 +56 +56 опасность
перегрева
997.2 997.0 +36.6
15 19.06 В 2 2000 м мгла 3/3 600 м
[Sc]
+31.2 +27.3 80 +50 +50 опасность
перегрева
999.6 1000.0
18 19.06 СВ 2 2000 м мгла 5/4 600 м
[Sc Ac trans]
+30.4 +27.4 84 +49 +49 опасность
перегрева
1000.9 1001.0
21 19.06 ЮВ 2 2000 м мгла 6/4 600 м
[Sc Ac trans]
+29.6 +27.1 86 +47 +47 опасность
перегрева
999.8 1000.0
00 20.06 СВ 2 4000 м 6/4 600 м
[Sc Ac trans]
+26.4 +25.0 92 +38 +38 очень
душно
1000.4 1000.0
03 20.06 СВ 2 4000 м 9/5 600 м
[Sc Ac trans]
+28.2 +25.7 86 +42 +45 опасность
перегрева
1002.5 1003.0 +26.1
06 20.06 ЮВ 2 4000 м 8/5 600 м
[Sc Ac trans]
+30.6 +26.1 77 +46 +54 опасность
перегрева
1002.5 1003.0
09 20.06 ЮВ 1 4000 м 4/4 600 м
[Sc]
+33.0 +26.6 69 +50 +59 опасность
перегрева
1000.1 1000.0
12 20.06 ЮВ 1 4000 м 5/4 600 м
[Sc Ac trans]
+31.6 +26.0 72 +47 +48 опасность
перегрева
998.7 999.0 +34.4
15 20.06 штиль 0 2000 м мгла 4/4 600 м
[Sc]
+30.0 +26.7 83 +47 +47 опасность
перегрева
1001.6 1002.0
18 20.06 В 1 2000 м мгла 5/4 600 м
[Sc Ac trans]
+29.2 +26.1 83 +44 +44 опасность
перегрева
1002.7 1003.0
21 20.06 В 1 2000 м мгла 6/4 600 м
[Sc Ac trans]
+28.0 +20.4 63 +34 +34 очень
душно
1001.5 1002.0
00 21.06 штиль 0 4000 м ясно +28.2 +26.5 91 +44 +44 опасность
перегрева
1002.0 1002.0
03 21.06 В 1 4000 м ясно +31.2 +27.1 79 +49 +63 опасность
перегрева
1002.3 1002.0 +27.9
06 21.06 штиль 0 4000 м ясно +33.8 +27.5 70 +53 +83 опасность
перегрева
1001.7 1002.0
09 21.06 В 1 4000 м 4/4 600 м
[Sc]
+35.4 +27.5 64 +55 +64 опасность
перегрева
999.3 999.0
12 21.06 ЮВ 1 4000 м 3/3 600 м
[Sc]
+35.2 +27.0 63 +53 +54 опасность
перегрева
997.9 998.0 +37.4
15 21.06 штиль 0 2000 м мгла 3/3 600 м
[Sc]
+33.0 +27.2 72 +52 +52 опасность
перегрева
999.4 999.0
18 21.06 В 1 2000 м мгла 5/4 600 м
[Sc Ac trans]
+31.8 +27.1 76 +50 +50 опасность
перегрева
1001.2 1001.0
21 21.06 СВ 1 2000 м мгла 6/4 600 м
[Sc Ac trans]
+30.4 +26.8 81 +47 +47 опасность
перегрева
1000.0 1000.0
00 22.06 В 1 4000 м 8/5 600 м
[Sc Ac trans]
+27.6 +25.6 89 +41 +41 опасность
перегрева
1001.5 1002.0
03 22.06 штиль 0 4000 м 6/4 600 м
[Sc Ac trans]
+29.4 +25.4 79 +43 +51 опасность
перегрева
1002.2 1002.0 +27.4
06 22.06 ЮВ 1 4000 м 3/3 600 м
[Sc]
+34.8 +25.9 60 +50 +68 опасность
перегрева
1001.9 1002.0
09 22.06 В 1 4000 м 5/3 600 м
[Sc Ac trans]
+36.2 +25.0 53 +50 +59 опасность
перегрева
999.6 1000.0
12 22.06 ЮВ 1 4000 м 4/3 600 м
[Sc Ac trans]
+34.8 +26.2 61 +51 +52 опасность
перегрева
997.7 998.0 +37.2
15 22.06 штиль 0 2000 м мгла 3/3 600 м
[Sc]
+32.4 +26.3 70 +49 +49 опасность
перегрева
999.0 999.0
18 22.06 ЮВ 1 2000 м мгла 5/3 600 м
[Sc Ac trans]
+31.2 +26.2 75 +47 +47 опасность
перегрева
1000.3 1000.0
21 22.06 СВ 1 2000 м мгла 6/4 600 м
[Sc Ac trans]
+28.8 +26.6 88 +45 +45 опасность
перегрева
999.7 1000.0
00 23.06 СВ 1 4000 м 8/4 600 м
[Sc Ac trans]
+28.4 +27.0 92 +45 +45 опасность
перегрева
1000.5 1001.0
03 23.06 В 2 4000 м 8/5 600 м
[Sc Ac trans]
+32.0 +27.0 75 +50 +54 опасность
перегрева
1002.1 1002.0 +28.1
06 23.06 СВ 1 4000 м в посл. час дождь 8/5 600 м
[Sc Ac trans]
+30.8 +24.8 70 +44 +52 опасность
перегрева
1002.1 1002.0 0.2
09 23.06 СВ 1 4000 м 8/5 600 м
[Sc Ac trans]
+32.6 +25.0 64 +46 +51 опасность
перегрева
1000.4 1000.0 0.2
12 23.06 ЮВ 1 2000 м слабый дождь 9/5 600 м
[Sc Ac trans]
+32.2 +28.9 83 +55 +56 опасность
перегрева
998.0 998.0 +35.4 1
15 23.06 штиль 0 2000 м мгла {дождь} 9/5 600 м
[Sc Ac trans]
+30.2 +27.7 87 +49 +49 опасность
перегрева
999.2 999.0 3

 

Местоположение метеостанции Purnea (Bihar, Индия): широта 25.27 долгота 87.47 высота над уровнем моря 38 м.

В архиве по умолчанию представлена погода в Purnea за последнюю неделю. Архивные данные за месяц целиком и за предыдущие месяцы, начиная с января 2011 года, Вы можете получить, выбрав интересующий диапазон дат из раскрывающегося списка и нажав кнопку "Ввод!".


*Определитесь, кто Вы:
робот инопланетянин человек

Внимание! Время в таблицах - всемирное. Для получения местного времени необходимо прибавить поправку, которая в Purnea равна 5.5 ч.

Смотрите также архив погоды в соседних городах и на ближайших метеорологических станциях:

Погода в Bhagalpur (Bihar, Индия) (53 км)
Погода в Malda (West Bengal, Индия) (72 км)
Погода в Badalgachhi (Бангладеш) (115 км)
Погода в Dinajpur (Бангладеш) (129 км)
Погода в Balurghat (West Bengal, Индия) (132 км)
Погода в Biratnagar (Непал) (136 км)
Погода в Dimla (Бангладеш) (142 км)
Погода в Baharampur (West Bengal, Индия) (150 км)
Погода в Saidpur (Бангладеш) (155 км)
Погода в Rajshahi (Бангладеш) (159 км)

Пояснения к столбцам:

Ветер - указаны скорость ветра в м/с - средняя за 10 мин, порывы в срок и между сроками (в фигурных скобках) и направление, откуда дует ветер: С - северный, СВ - северо-восточный, В - восточный, ЮВ - юго-восточный, Ю - южный, ЮЗ - юго-западный, З - западный, СЗ - северо-западный.
Видимость - горизонтальная дальность видимости в метрах или километрах. При видимости от 1 до 10 км при отсутствии осадков обычно наблюдается дымка, при ухудшении видимости до 1 км и менее - туман. В сухую погоду видимость может ухудшаться дымом, пылью или мглою.
Явления - указаны атмосферные явления, наблюдавшиеся в срок или в последний час перед сроком; фигурными скобками обозначены явления, наблюдавшиеся между сроками (за 1-3 часа до срока); квадратными скобками обозначены град или гололедные отложения с указанием их диаметра в мм.
Облачность - указаны через наклонную черту общая и нижняя облачность в баллах и высота нижней границы облаков в метрах; квадратными скобками обозначены формы облаков: Ci - перистые, Cs - перисто-слоистые, Cc - перисто-кучевые, Ac - высококучевые, As - высокослоистые, Sc - слоисто-кучевые, Ns - слоисто-дождевые, Cu - кучевые, Cb - кучево-дождевые. Подробнее классификацию облаков см. в Атласе облаков (PDF).
T - Температура воздуха - температура, измеренная на высоте 2 м над землей.
Td - Температура точки росы - температура, при понижении до которой содержащийся в воздухе водяной пар достигнет насыщения.
f - Относительная влажность воздуха - влажноcть воздуха, измеренная на высоте 2 м над землей.
Te - Эффективная температура - температура, которую ощущает одетый по сезону человек в тени. Характеристика душности погоды. При расчете учитывается влияние влажности воздуха и скорости ветра на теплоощущения человека.
Tes - Эффективная температура на солнце - температура, которую ощущает человек, с поправкой на солнечный нагрев. Характеристика знойности погоды. Зависит от высоты солнца над горизонтом, облачности и скорости ветра. Ночью, в пасмурную погоду, а также при ветре 12 м/с и более поправка равна нулю.
P - Атмосферное давление - приведенное к уровню моря атмосферное давление.
Po - Атмосферное давление - измеренное на уровне метеостанции атмосферное давление.
Tmin - Минимальная температура - минимум температуры воздуха на высоте 2 м над землей.
Tmax - Максимальная температура - максимум температуры воздуха на высоте 2 м над землей.
R - Количество осадков - Количество выпавших осадков за период времени, мм. При наведении курсора мыши на число - период времени, за который выпало указанное количество осадков.
R24 - Количество осадков - Количество выпавших осадков за 24 часа, мм.
S - Снежный покров - Высота снежного покрова, см. При наведении курсора мыши на число - состояние снежного покрова и степень покрытия местности в баллах.